Beckley, WV

12:46 PM EDT on June 23, 2017 (GMT -0400)
Raleigh County Memorial

Weather History for KBKW - February, 2012

Change the Weather History Date:

Monday, February 27, 2012

  Actual Average Record
Temperature  
Mean Temperature 45 °F 37 °F  
Max Temperature 59 °F 46 °F 75 °F (1917)
Min Temperature 30 °F 28 °F -8 °F (1963)
Degree Days  
Heating Degree Days 20 28  
Month to date heating degree days 747 829  
Since 1 July heating degree days 3365 3973  
Cooling Degree Days 0 0  
Month to date cooling degree days 0 0  
Year to date cooling degree days 0 0  
Moisture  
Dew Point 24 °F    
Average Humidity 47    
Maximum Humidity 63    
Minimum Humidity 30    
Precipitation  
Precipitation 0.00 in 0.10 in 1.44 in (1902)
Month to date precipitation 2.68 2.65  
Year to date precipitation 6.03 5.46  
Snow  
Snow 0.00 in - - ()
Month to date snowfall 10.4  
Since 1 September snowfall 29.2  
Snow Depth 0.00 in    
Sea Level Pressure  
Sea Level Pressure 30.35 in    
Wind  
Wind Speed 8 mph (WSW)    
Max Wind Speed 18 mph    
Max Gust Speed 26 mph    
Visibility 10 miles    
Events      
T = Trace of Precipitation, MM = Missing Value Source: NWS Daily Summary

Daily Weather History Graph

Daily Weather History Graph

Search for Another Location

Airport or City:

Trip Planner

Search our weather history database for the weather conditions in past years. The results will help you decide how hot, cold, wet, or windy it might be!

Date:

Astronomy

Feb. 27, 2012 Rise Set
Actual Time 6:59 AM EST 6:15 PM EST
Civil Twilight 6:33 AM EST 6:42 PM EST
Nautical Twilight 6:02 AM EST 7:12 PM EST
Astronomical Twilight 5:32 AM EST 7:42 PM EST
Moon 9:34 AM EST (2/27) No Moon Set
Length of Visible Light 12h 08m
Length of Day
11h 16m
Waxing Crescent, 29% of the Moon is Illuminated
Feb 27
Waxing Crescent
Feb 29
First Quarter
Mar 8
Full
Mar 14
Last Quarter
Mar 22
New

Hourly Weather History & Observations

Time (EST) Temp. Windchill Dew Point Humidity Pressure Visibility Wind Dir Wind Speed Gust Speed Precip Events Conditions
12:51 AM 37.9 °F 32.7 °F 19.0 °F 47% 30.33 in 10.0 mi SE 6.9 mph - N/A   Clear
1:51 AM 37.9 °F 31.5 °F 19.0 °F 47% 30.34 in 10.0 mi SE 9.2 mph - N/A   Clear
2:51 AM 35.1 °F - 19.0 °F 52% 30.37 in 10.0 mi Calm Calm - N/A   Clear
3:51 AM 30.0 °F 25.2 °F 19.0 °F 64% 30.37 in 10.0 mi SSE 4.6 mph - N/A   Clear
4:51 AM 36.0 °F 32.1 °F 18.0 °F 48% 30.36 in 10.0 mi SSE 4.6 mph - N/A   Clear
5:51 AM 34.0 °F - 18.0 °F 52% 30.37 in 10.0 mi Calm Calm - N/A   Clear
6:51 AM 30.0 °F - 19.0 °F 64% 30.40 in 10.0 mi Calm Calm - N/A   Clear
7:51 AM 37.0 °F 33.3 °F 21.9 °F 54% 30.40 in 10.0 mi SSW 4.6 mph - N/A   Partly Cloudy
8:51 AM 44.1 °F 39.5 °F 19.9 °F 38% 30.40 in 10.0 mi SW 8.1 mph - N/A   Overcast
9:51 AM 48.0 °F - 21.0 °F 34% 30.39 in 10.0 mi WSW 8.1 mph - N/A   Overcast
10:51 AM 50.0 °F - 24.1 °F 36% 30.38 in 10.0 mi SW 9.2 mph - N/A   Overcast
11:51 AM 53.1 °F - 27.0 °F 37% 30.36 in 10.0 mi SW 11.5 mph - N/A   Partly Cloudy
12:51 PM 55.9 °F - 27.0 °F 33% 30.32 in 10.0 mi West 11.5 mph 19.6 mph N/A   Clear
1:51 PM 57.0 °F - 26.1 °F 30% 30.30 in 10.0 mi West 15.0 mph 19.6 mph N/A   Clear
2:51 PM 57.9 °F - 27.0 °F 31% 30.28 in 10.0 mi West 16.1 mph 20.7 mph N/A   Mostly Cloudy
3:51 PM 57.9 °F - 28.0 °F 32% 30.30 in 10.0 mi WSW 13.8 mph 23.0 mph N/A   Clear
4:51 PM 57.9 °F - 28.9 °F 33% 30.28 in 10.0 mi WNW 15.0 mph 23.0 mph N/A   Clear
5:51 PM 55.9 °F - 28.0 °F 34% 30.31 in 10.0 mi WNW 12.7 mph 20.7 mph N/A   Clear
6:51 PM 51.8 °F - 28.4 °F 41% 30.31 in 10.0 mi West 5.8 mph - N/A   Clear
7:51 PM 50.0 °F - 28.9 °F 44% 30.34 in 10.0 mi West 4.6 mph - N/A   Clear
8:51 PM 50.0 °F - 30.2 °F 47% 30.33 in 10.0 mi NW 4.6 mph - N/A   Clear
9:51 PM 48.0 °F - 30.0 °F 50% 30.36 in 10.0 mi WNW 5.8 mph - N/A   Clear
10:51 PM 48.0 °F - 28.9 °F 48% 30.37 in 10.0 mi NW 11.5 mph - N/A   Clear
11:51 PM 44.1 °F 41.5 °F 26.1 °F 49% 30.39 in 10.0 mi North 4.6 mph - N/A   Clear